Showing default

QIANFAN-93, 66035

Orbit data source: Space-Track

QIANFAN-93, 66035 is a Chinese payload satellite in LEO that was launched on Fri, 17 Oct 2025 UTC via a CHANG ZHENG 6A launch vehicle from the Taiyaun Space Center, China (TSC). Payload-class satellites include a variety of spacecraft equipped with specific instruments for various scientific and technological missions. These include communications satellites like Starlink; space stations such as the ISS; scientific satellites like the Hubble; Earth observation satellites from companies like Planet Labs, Umbra, and HawkEye 360; GPS; miniature CubeSats for education and research; and military/defense satellites.

Loading next visibility...
Identifier
66035, 2025-233C
Orbit
LEO
Country
Flag of CNCN / PRC
Related business
Manufacturer
SECM
Mission
Operational Commercial Communications
Bus & Motor
QIANFAN, Unknown motor
Mass
267 kg wet, ~267 kg dry
Launch date (UTC)
2025-10-17 (8 months ago)
Launch vehicle
CHANG ZHENG 6A
Launch site
Taiyaun Space Center, China (TSC)
Object type
Payload
Rocket body
Debris
Shape & HBR
Box + 1 Pan, 14.5 m
Radar Cross Section
13.200 m², Large (>1 m²)

Expand to show TLE details & history
Last TLE update: 7 hours ago

TLE from 7 hours ago
0 QIANFAN-93
1 66035U 25233C   26177.70375021  .00000096  00000-0  13083-3 0  9996
2 66035  89.0006  42.2533 0001823  83.5301 276.6058 13.51014689 34467
Epoch: 2026-06-26T16:53Z
TLE epoch observation values (Epoch: 2026-06-26T16:53:24.018Z)
Latitude
0.00003°
Longitude
-125.92522°
Altitude
1,071.325 km
Speed
7.316 km/s
True Right ascension
02h 49m 00s
True Declination
0° 00' 00"
Sunlit
Object was in daylight at epoch
Visualization orbit readout
Latitude
Unknown
Longitude
Unknown
Altitude
Unknown
Speed
Unknown
Apparent Right ascension
Unknown
Apparent Declination
Unknown
Sunlit
N/A
Visualization observer readout
Local Sidereal Time
10:51:59
Azimuth
Unknown
Elevation
Unknown
Doppler factor
Unknown
Orbital elements
Apogee altitude
1,066.936 km
Perigee altitude
1,064.222 km
Semi-major axis
7,443.716 km
Eccentricity
0.00018
Inclination
89.0006°
RAAN
42.2533°
Arg. of periapsis
83.5301°
True anomaly
276.58505°
Mean anomaly
276.6058°
Eccentric anomaly
276.59542°
Mean motion
3.37955 °/min
Orbital period
106.52 mins
BSTAR
0.00013083
Loading maneuver chart data...
Computing Atmospheric mass density...
Loading historical data...
Loading historical data...
Loading historical data...
Loading historical data...
Loading historical data...
Loading historical data...
Loading historical data...

Documentation

Showing up to 5 results
|